| time (UTC) | temp F | wind direction | speed MPH | gust MPH | rain 1hr in | rain 24hr in | rain mn in | humidity % | barometer mb |
| 20260507114048 | 60 | 318 | 2.0 | 9.0 | 0.00 | 0.03 | 0.00 | 75 | 1014.1 |
| 20260507113549 | 60 | 64 | 3.0 | 9.0 | 0.00 | 0.03 | 0.00 | 75 | 1014.0 |
| 20260507113051 | 60 | 133 | 4.0 | 8.0 | 0.00 | 0.03 | 0.00 | 74 | 1013.9 |
| 20260507112551 | 61 | 261 | 3.0 | 11.0 | 0.00 | 0.03 | 0.00 | 74 | 1014.1 |
| 20260507112050 | 60 | 72 | 4.0 | 11.0 | 0.00 | 0.03 | 0.00 | 74 | 1014.1 |
| 20260507111555 | 61 | 328 | 4.0 | 11.0 | 0.00 | 0.03 | 0.00 | 72 | 1014.2 |
| 20260507111049 | 62 | 294 | 4.0 | 10.0 | 0.00 | 0.03 | 0.00 | 69 | 1014.1 |
| 20260507110548 | 62 | 209 | 2.0 | 6.0 | 0.00 | 0.03 | 0.00 | 70 | 1014.2 |
| 20260507110052 | 62 | 180 | 2.0 | 12.0 | 0.00 | 0.03 | 0.00 | 69 | 1014.3 |
| 20260507105548 | 62 | 300 | 3.0 | 12.0 | 0.00 | 0.03 | 0.00 | 72 | 1014.3 |
| 20260507105048 | 61 | 290 | 4.0 | 8.0 | 0.00 | 0.03 | 0.00 | 73 | 1014.3 |
| 20260507104554 | 61 | 284 | 3.0 | 9.0 | 0.00 | 0.03 | 0.00 | 70 | 1014.3 |
| 20260507104047 | 61 | 327 | 3.0 | 10.0 | 0.00 | 0.03 | 0.00 | 73 | 1014.6 |
| 20260507103548 | 60 | 296 | 5.0 | 10.0 | 0.00 | 0.03 | 0.00 | 75 | 1014.7 |
| 20260507103053 | 60 | 308 | 5.0 | 10.0 | 0.00 | 0.03 | 0.00 | 74 | 1014.6 |
| 20260507102548 | 59 | 177 | 5.0 | 11.0 | 0.00 | 0.03 | 0.00 | 75 | 1014.5 |
| 20260507102049 | 59 | 292 | 6.0 | 11.0 | 0.00 | 0.03 | 0.00 | 75 | 1014.6 |
| 20260507101552 | 59 | 303 | 5.0 | 11.0 | 0.00 | 0.03 | 0.00 | 74 | 1014.6 |
| 20260507101048 | 60 | 318 | 3.0 | 9.0 | 0.00 | 0.03 | 0.00 | 75 | 1014.7 |
| 20260507100549 | 59 | 284 | 3.0 | 10.0 | 0.00 | 0.03 | 0.00 | 75 | 1014.7 |
| 20260507100057 | 59 | 309 | 4.0 | 12.0 | 0.00 | 0.03 | 0.00 | 76 | 1014.9 |
| 20260507095549 | 59 | 311 | 5.0 | 12.0 | 0.00 | 0.03 | 0.00 | 77 | 1014.7 |
| 20260507095049 | 59 | 305 | 6.0 | 11.0 | 0.00 | 0.03 | 0.00 | 76 | 1014.9 |
| 20260507094554 | 59 | 318 | 5.0 | 12.0 | 0.00 | 0.03 | 0.00 | 75 | 1014.9 |
| 20260507094049 | 59 | 327 | 4.0 | 13.0 | 0.00 | 0.03 | 0.00 | 75 | 1014.8 |
| 20260507093549 | 59 | 292 | 7.0 | 13.0 | 0.00 | 0.03 | 0.00 | 75 | 1014.9 |
| 20260507093241 | 60 | 308 | 4.0 | 9.0 | 0.00 | 0.03 | 0.00 | 76 | 1014.9 |
| 20260507091554 | 58 | 310 | 7.0 | 11.0 | 0.00 | 0.03 | 0.00 | 77 | 1014.6 |
| 20260507091051 | 58 | 299 | 6.0 | 11.0 | 0.00 | 0.03 | 0.00 | 79 | 1014.8 |
| 20260507091037 | 58 | 285 | 5.0 | 12.0 | 0.00 | 0.03 | 0.00 | 79 | 1014.6 |
| 20260507085553 | 58 | 334 | 6.0 | 12.0 | 0.00 | 0.03 | 0.00 | 78 | 1014.7 |
| 20260507085050 | 58 | 324 | 4.0 | 12.0 | 0.00 | 0.03 | 0.00 | 79 | 1014.8 |
| 20260507084555 | 57 | 360 | 2.0 | 9.0 | 0.00 | 0.03 | 0.00 | 80 | 1014.7 |
| 20260507084049 | 57 | 320 | 3.0 | 10.0 | 0.00 | 0.03 | 0.00 | 79 | 1014.8 |
| 20260507083550 | 57 | 19 | 4.0 | 10.0 | 0.00 | 0.03 | 0.00 | 82 | 1014.7 |
| 20260507083056 | 56 | 293 | 5.0 | 10.0 | 0.00 | 0.03 | 0.00 | 80 | 1014.6 |
| 20260507082552 | 56 | 4 | 3.0 | 10.0 | 0.00 | 0.03 | 0.00 | 81 | 1014.7 |
| 20260507082051 | 56 | 337 | 4.0 | 12.0 | 0.00 | 0.03 | 0.00 | 81 | 1014.6 |
| 20260507081552 | 56 | 301 | 5.0 | 12.0 | 0.00 | 0.03 | 0.00 | 83 | 1014.6 |
| 20260507081326 | 56 | 278 | 2.0 | 11.0 | 0.00 | 0.03 | 0.00 | 81 | 1014.7 |
| 20260507075551 | 55 | 296 | 6.0 | 12.0 | 0.00 | 0.03 | 0.00 | 84 | 1014.6 |
| 20260507075052 | 55 | 300 | 6.0 | 12.0 | 0.00 | 0.03 | 0.00 | 85 | 1014.7 |
| 20260507074601 | 54 | 327 | 5.0 | 10.0 | 0.00 | 0.03 | 0.00 | 85 | 1014.6 |
| 20260507074049 | 54 | 309 | 6.0 | 10.0 | 0.00 | 0.03 | 0.00 | 86 | 1014.9 |
| 20260507073549 | 54 | 310 | 3.0 | 8.0 | 0.00 | 0.03 | 0.00 | 86 | 1014.9 |
| 20260507073118 | 54 | 317 | 4.0 | 8.0 | 0.00 | 0.03 | 0.00 | 87 | 1014.8 |
| 20260507072548 | 53 | 157 | 3.0 | 8.0 | 0.00 | 0.03 | 0.00 | 88 | 1014.9 |
| 20260507072049 | 53 | 58 | 2.0 | 6.0 | 0.00 | 0.03 | 0.00 | 87 | 1014.8 |
| 20260507071603 | 53 | 329 | 2.0 | 6.0 | 0.00 | 0.03 | 0.00 | 87 | 1014.7 |
| 20260507071051 | 53 | 126 | 2.0 | 7.0 | 0.00 | 0.03 | 0.00 | 87 | 1014.6 |
| 20260507070548 | 53 | 202 | 3.0 | 7.0 | 0.00 | 0.03 | 0.00 | 87 | 1014.7 |
| 20260507070054 | 53 | 12 | 3.0 | 8.0 | 0.00 | 0.03 | 0.00 | 87 | 1014.6 |
| 20260507065548 | 53 | 275 | 2.0 | 8.0 | 0.00 | 0.03 | 0.00 | 87 | 1014.5 |
| 20260507065048 | 53 | 55 | 2.0 | 8.0 | 0.00 | 0.03 | 0.00 | 87 | 1014.3 |
| 20260507064557 | 53 | 286 | 3.0 | 6.0 | 0.00 | 0.03 | 0.00 | 88 | 1014.4 |
| 20260507064051 | 53 | 16 | 2.0 | 9.0 | 0.00 | 0.03 | 0.00 | 88 | 1014.6 |
| 20260507063550 | 52 | 322 | 5.0 | 9.0 | 0.00 | 0.03 | 0.00 | 88 | 1014.2 |
| 20260507063058 | 52 | 335 | 3.0 | 6.0 | 0.00 | 0.03 | 0.00 | 88 | 1014.2 |
| 20260507062549 | 52 | 278 | 3.0 | 6.0 | 0.00 | 0.03 | 0.00 | 88 | 1014.2 |
| 20260507062049 | 52 | 354 | 1.0 | 5.0 | 0.00 | 0.03 | 0.00 | 88 | 1014.3 |
| 20260507061558 | 52 | 90 | 2.0 | 5.0 | 0.00 | 0.03 | 0.00 | 88 | 1014.2 |
| 20260507061049 | 52 | 327 | 1.0 | 7.0 | 0.00 | 0.03 | 0.00 | 88 | 1014.2 |
| 20260507060552 | 52 | 124 | 3.0 | 8.0 | 0.00 | 0.03 | 0.00 | 88 | 1014.2 |
| 20260507055550 | 52 | 13 | 4.0 | 7.0 | 0.00 | 0.03 | 0.00 | 88 | 1014.2 |
| 20260507055049 | 52 | 32 | 2.0 | 6.0 | 0.00 | 0.03 | 0.00 | 88 | 1014.2 |
| 20260507054605 | 52 | 317 | 2.0 | 6.0 | 0.00 | 0.03 | 0.00 | 88 | 1014.0 |
| 20260507054048 | 52 | 280 | 0.0 | 4.0 | 0.00 | 0.03 | 0.00 | 88 | 1013.9 |
| 20260507053549 | 52 | 197 | 1.0 | 6.0 | 0.00 | 0.03 | 0.00 | 89 | 1014.1 |
| 20260507053059 | 52 | 266 | 2.0 | 6.0 | 0.00 | 0.03 | 0.00 | 89 | 1014.0 |
| 20260507052552 | 52 | 351 | 2.0 | 5.0 | 0.00 | 0.03 | 0.00 | 89 | 1013.8 |
| 20260507052048 | 52 | 214 | 1.0 | 4.0 | 0.00 | 0.03 | 0.00 | 89 | 1013.9 |
| 20260507051601 | 52 | 112 | 1.0 | 4.0 | 0.00 | 0.03 | 0.00 | 89 | 1013.7 |
| 20260507051048 | 52 | 359 | 2.0 | 4.0 | 0.00 | 0.03 | 0.00 | 89 | 1013.8 |
| 20260507050548 | 52 | 52 | 2.0 | 4.0 | 0.00 | 0.03 | 0.00 | 89 | 1013.7 |
| 20260507045549 | 52 | 186 | 1.0 | 5.0 | 0.00 | 0.03 | 0.00 | 89 | 1013.8 |
| 20260507045049 | 52 | 25 | 2.0 | 4.0 | 0.00 | 0.03 | 0.00 | 89 | 1013.7 |
| 20260507044600 | 52 | 287 | 2.0 | 4.0 | 0.00 | 0.03 | 0.00 | 90 | 1013.8 |
| 20260507044052 | 52 | 316 | 2.0 | 4.0 | 0.00 | 0.03 | 0.00 | 90 | 1013.7 |
| 20260507043551 | 52 | 290 | 2.0 | 6.0 | 0.00 | 0.03 | 0.00 | 90 | 1013.9 |
| 20260507043052 | 52 | 23 | 1.0 | 6.0 | 0.00 | 0.03 | 0.00 | 90 | 1013.7 |
| 20260507042551 | 52 | 40 | 3.0 | 6.0 | 0.00 | 0.03 | 0.00 | 90 | 1013.6 |
| 20260507042048 | 52 | 305 | 2.0 | 7.0 | 0.00 | 0.03 | 0.00 | 90 | 1013.8 |
| 20260507041559 | 52 | 294 | 4.0 | 7.0 | 0.00 | 0.03 | 0.00 | 91 | 1013.7 |
| 20260507041052 | 52 | 320 | 2.0 | 6.0 | 0.00 | 0.03 | 0.00 | 91 | 1013.8 |
| 20260507040550 | 51 | 325 | 1.0 | 6.0 | 0.00 | 0.03 | 0.00 | 91 | 1013.6 |
| 20260507040105 | 51 | 97 | 2.0 | 6.0 | 0.00 | 0.03 | 0.00 | 92 | 1013.6 |
| 20260507035551 | 51 | 357 | 2.0 | 5.0 | 0.00 | 0.03 | 0.00 | 92 | 1013.4 |
| 20260507035051 | 51 | 46 | 1.0 | 2.0 | 0.00 | 0.03 | 0.00 | 92 | 1013.5 |
| 20260507034558 | 51 | 0 | 0.0 | 3.0 | 0.00 | 0.03 | 0.00 | 92 | 1013.5 |
| 20260507034049 | 51 | 41 | 1.0 | 3.0 | 0.00 | 0.03 | 0.00 | 92 | 1013.5 |
| 20260507033549 | 51 | 60 | 1.0 | 2.0 | 0.00 | 0.03 | 0.00 | 92 | 1013.5 |
| 20260507033057 | 51 | 93 | 0.0 | 1.0 | 0.00 | 0.03 | 0.00 | 92 | 1013.4 |
| 20260507032549 | 51 | 0 | 0.0 | 1.0 | 0.00 | 0.03 | 0.00 | 92 | 1013.5 |
| 20260507032051 | 52 | 0 | 0.0 | 3.0 | 0.00 | 0.03 | 0.00 | 92 | 1013.4 |
| 20260507031550 | 52 | 0 | 0.0 | 4.0 | 0.00 | 0.03 | 0.00 | 92 | 1013.5 |
| 20260507031052 | 52 | 55 | 1.0 | 4.0 | 0.00 | 0.03 | 0.00 | 91 | 1013.4 |
| 20260507030550 | 52 | 48 | 1.0 | 4.0 | 0.00 | 0.03 | 0.00 | 91 | 1013.4 |
| 20260507030423 | 52 | 57 | 1.0 | 4.0 | 0.00 | 0.03 | 0.00 | 91 | 1013.4 |
| 20260507025550 | 52 | 51 | 2.0 | 3.0 | 0.00 | 0.03 | 0.00 | 91 | 1013.5 |
| 20260507025050 | 52 | 88 | 0.0 | 6.0 | 0.00 | 0.03 | 0.00 | 91 | 1013.4 |
| 20260507024553 | 52 | 170 | 1.0 | 7.0 | 0.00 | 0.03 | 0.00 | 91 | 1013.5 |
| 20260507024048 | 52 | 348 | 1.0 | 7.0 | 0.00 | 0.03 | 0.00 | 91 | 1013.5 |
| 20260507023554 | 52 | 290 | 3.0 | 8.0 | 0.00 | 0.03 | 0.00 | 91 | 1013.6 |
| 20260507023052 | 52 | 315 | 3.0 | 8.0 | 0.00 | 0.03 | 0.00 | 91 | 1013.7 |
| 20260507022549 | 52 | 43 | 1.0 | 8.0 | 0.00 | 0.03 | 0.00 | 91 | 1013.7 |
| 20260507022049 | 52 | 164 | 2.0 | 8.0 | 0.00 | 0.03 | 0.00 | 91 | 1013.6 |
| 20260507021552 | 52 | 47 | 2.0 | 4.0 | 0.00 | 0.03 | 0.00 | 91 | 1013.7 |
| 20260507021048 | 52 | 271 | 1.0 | 4.0 | 0.00 | 0.03 | 0.00 | 91 | 1013.7 |
| 20260507020549 | 52 | 183 | 0.0 | 4.0 | 0.00 | 0.03 | 0.00 | 91 | 1013.8 |
| 20260507015548 | 52 | 137 | 1.0 | 3.0 | 0.00 | 0.03 | 0.00 | 91 | 1013.9 |
| 20260507015048 | 52 | 86 | 0.0 | 5.0 | 0.00 | 0.03 | 0.00 | 91 | 1013.9 |
| 20260507014602 | 52 | 138 | 0.0 | 5.0 | 0.00 | 0.03 | 0.00 | 91 | 1014.0 |
| 20260507014050 | 52 | 0 | 2.0 | 5.0 | 0.00 | 0.03 | 0.00 | 91 | 1014.1 |
| 20260507013550 | 52 | 19 | 1.0 | 4.0 | 0.00 | 0.03 | 0.00 | 91 | 1014.1 |
| 20260507013050 | 52 | 79 | 0.0 | 6.0 | 0.00 | 0.03 | 0.00 | 91 | 1014.1 |
| 20260507012550 | 52 | 100 | 2.0 | 6.0 | 0.00 | 0.03 | 0.00 | 91 | 1014.1 |
| 20260507012224 | 52 | 294 | 1.0 | 4.0 | 0.00 | 0.03 | 0.00 | 91 | 1013.9 |
| 20260507005551 | 53 | 34 | 2.0 | 6.0 | 0.00 | 0.03 | 0.00 | 91 | 1014.2 |
| 20260507005055 | 53 | 16 | 3.0 | 6.0 | 0.00 | 0.03 | 0.00 | 91 | 1014.1 |
| 20260507004556 | 53 | 323 | 1.0 | 5.0 | 0.00 | 0.03 | 0.00 | 92 | 1014.1 |
| 20260507004048 | 53 | 251 | 1.0 | 5.0 | 0.00 | 0.03 | 0.00 | 92 | 1014.2 |
| 20260507003552 | 53 | 50 | 1.0 | 3.0 | 0.00 | 0.03 | 0.00 | 92 | 1014.3 |
| 20260507003056 | 53 | 133 | 1.0 | 4.0 | 0.00 | 0.03 | 0.00 | 91 | 1014.2 |
| 20260507002548 | 53 | 351 | 0.0 | 4.0 | 0.00 | 0.03 | 0.00 | 91 | 1014.3 |
| 20260507002051 | 53 | 240 | 1.0 | 3.0 | 0.00 | 0.03 | 0.00 | 91 | 1014.3 |
| 20260507001613 | 53 | 205 | 1.0 | 4.0 | 0.00 | 0.03 | 0.00 | 91 | 1014.4 |
| 20260507001051 | 53 | 303 | 1.0 | 4.0 | 0.00 | 0.03 | 0.00 | 91 | 1014.4 |
| 20260507000551 | 53 | 299 | 2.0 | 5.0 | 0.00 | 0.03 | 0.00 | 91 | 1014.5 |
| 20260507000059 | 53 | 351 | 2.0 | 6.0 | 0.00 | 0.03 | 0.00 | 90 | 1014.7 |
| 20260506235549 | 53 | 305 | 3.0 | 6.0 | 0.00 | 0.03 | 0.00 | 91 | 1014.5 |
| 20260506235052 | 54 | 271 | 2.0 | 5.0 | 0.00 | 0.03 | 0.00 | 91 | 1014.6 |
| 20260506234602 | 54 | 341 | 0.0 | 3.0 | 0.00 | 0.03 | 0.00 | 91 | 1014.7 |
| 20260506234048 | 54 | 295 | 1.0 | 3.0 | 0.00 | 0.03 | 0.00 | 91 | 1014.6 |
| 20260506233652 | 54 | 287 | 0.0 | 4.0 | 0.00 | 0.03 | 0.00 | 91 | 1014.7 |
| 20260506232048 | 54 | 4 | 1.0 | 4.0 | 0.00 | 0.03 | 0.00 | 91 | 1014.7 |
| 20260506231558 | 54 | 205 | 1.0 | 2.0 | 0.00 | 0.03 | 0.00 | 91 | 1014.8 |
| 20260506231048 | 54 | 0 | 0.0 | 2.0 | 0.00 | 0.03 | 0.00 | 90 | 1014.7 |
| 20260506230550 | 54 | 0 | 0.0 | 2.0 | 0.00 | 0.03 | 0.00 | 90 | 1014.8 |
| 20260506230058 | 54 | 343 | 0.0 | 3.0 | 0.00 | 0.03 | 0.00 | 90 | 1014.6 |
| 20260506225550 | 54 | 0 | 1.0 | 3.0 | 0.00 | 0.03 | 0.00 | 90 | 1014.6 |
| 20260506225048 | 54 | 278 | 0.0 | 3.0 | 0.00 | 0.03 | 0.00 | 90 | 1014.7 |
| 20260506224552 | 54 | 29 | 1.0 | 4.0 | 0.00 | 0.03 | 0.00 | 90 | 1014.9 |
| 20260506224048 | 54 | 12 | 1.0 | 4.0 | 0.00 | 0.03 | 0.00 | 89 | 1015.0 |
| 20260506223551 | 54 | 34 | 1.0 | 4.0 | 0.00 | 0.03 | 0.00 | 89 | 1014.9 |
| 20260506223055 | 54 | 25 | 1.0 | 3.0 | 0.00 | 0.03 | 0.00 | 89 | 1015.1 |
| 20260506222549 | 54 | 41 | 0.0 | 3.0 | 0.00 | 0.03 | 0.00 | 89 | 1014.9 |
| 20260506222052 | 54 | 75 | 0.0 | 4.0 | 0.00 | 0.03 | 0.00 | 89 | 1014.9 |
| 20260506221602 | 54 | 74 | 1.0 | 6.0 | 0.00 | 0.03 | 0.00 | 88 | 1014.9 |
| 20260506221049 | 54 | 152 | 1.0 | 6.0 | 0.00 | 0.03 | 0.00 | 88 | 1014.8 |
| 20260506220549 | 55 | 270 | 3.0 | 5.0 | 0.00 | 0.03 | 0.00 | 87 | 1014.7 |
| 20260506220107 | 55 | 332 | 2.0 | 5.0 | 0.00 | 0.03 | 0.00 | 87 | 1014.9 |
| 20260506215548 | 55 | 36 | 1.0 | 5.0 | 0.00 | 0.03 | 0.03 | 86 | 1014.9 |
| 20260506215049 | 55 | 100 | 1.0 | 5.0 | 0.00 | 0.03 | 0.03 | 86 | 1014.9 |
| 20260506214557 | 55 | 78 | 0.0 | 4.0 | 0.00 | 0.03 | 0.03 | 86 | 1014.9 |
| 20260506214049 | 55 | 43 | 0.0 | 2.0 | 0.00 | 0.03 | 0.03 | 86 | 1014.8 |
| 20260506213550 | 55 | 162 | 0.0 | 2.0 | 0.00 | 0.03 | 0.03 | 86 | 1014.7 |
| 20260506213106 | 55 | 0 | 0.0 | 1.0 | 0.00 | 0.03 | 0.03 | 86 | 1014.9 |
| 20260506212549 | 55 | 0 | 0.0 | 3.0 | 0.00 | 0.03 | 0.03 | 86 | 1015.1 |
| 20260506212052 | 55 | 69 | 0.0 | 5.0 | 0.00 | 0.03 | 0.03 | 86 | 1015.1 |
| 20260506211557 | 55 | 61 | 0.0 | 5.0 | 0.00 | 0.03 | 0.03 | 86 | 1014.9 |
| 20260506211049 | 55 | 86 | 1.0 | 5.0 | 0.00 | 0.03 | 0.03 | 86 | 1014.9 |
| 20260506210551 | 55 | 69 | 1.0 | 3.0 | 0.00 | 0.03 | 0.03 | 86 | 1014.7 |
| 20260506210100 | 55 | 54 | 0.0 | 2.0 | 0.00 | 0.03 | 0.03 | 86 | 1014.6 |
| 20260506205549 | 55 | 0 | 0.0 | 2.0 | 0.00 | 0.03 | 0.03 | 86 | 1014.7 |
| 20260506205051 | 55 | 71 | 1.0 | 3.0 | 0.00 | 0.03 | 0.03 | 85 | 1014.6 |
| 20260506204555 | 55 | 0 | 0.0 | 4.0 | 0.00 | 0.03 | 0.03 | 85 | 1014.6 |
| 20260506204051 | 55 | 87 | 0.0 | 4.0 | 0.00 | 0.03 | 0.03 | 85 | 1014.4 |
| 20260506203549 | 55 | 29 | 2.0 | 4.0 | 0.00 | 0.03 | 0.03 | 85 | 1014.1 |
| 20260506203139 | 55 | 69 | 0.0 | 4.0 | 0.00 | 0.03 | 0.03 | 85 | 1014.1 |
| 20260506202552 | 55 | 69 | 1.0 | 4.0 | 0.00 | 0.03 | 0.03 | 84 | 1014.2 |
| 20260506202049 | 55 | 80 | 0.0 | 3.0 | 0.00 | 0.03 | 0.03 | 85 | 1014.3 |
| 20260506201653 | 55 | 0 | 0.0 | 3.0 | 0.00 | 0.03 | 0.03 | 84 | 1014.3 |
| 20260506200056 | 56 | 82 | 1.0 | 3.0 | 0.00 | 0.03 | 0.03 | 85 | 1013.8 |
| 20260506195548 | 55 | 36 | 1.0 | 3.0 | 0.00 | 0.03 | 0.03 | 85 | 1013.8 |
| 20260506195049 | 56 | 87 | 1.0 | 3.0 | 0.00 | 0.03 | 0.03 | 86 | 1013.9 |
| 20260506194555 | 56 | 61 | 0.0 | 3.0 | 0.00 | 0.03 | 0.03 | 86 | 1013.7 |
| 20260506194050 | 56 | 0 | 1.0 | 3.0 | 0.00 | 0.03 | 0.03 | 87 | 1013.7 |
| 20260506193552 | 56 | 69 | 1.0 | 3.0 | 0.00 | 0.03 | 0.03 | 87 | 1013.6 |
| 20260506193056 | 56 | 64 | 1.0 | 2.0 | 0.00 | 0.03 | 0.03 | 88 | 1013.4 |
| 20260506192549 | 56 | 127 | 0.0 | 2.0 | 0.00 | 0.03 | 0.03 | 88 | 1013.5 |
| 20260506192051 | 56 | 0 | 0.0 | 3.0 | 0.00 | 0.03 | 0.03 | 88 | 1013.4 |
| 20260506191559 | 56 | 103 | 1.0 | 3.0 | 0.00 | 0.03 | 0.03 | 88 | 1013.3 |
| 20260506191052 | 56 | 0 | 0.0 | 2.0 | 0.00 | 0.03 | 0.03 | 88 | 1013.4 |
| 20260506190549 | 56 | 317 | 0.0 | 4.0 | 0.00 | 0.03 | 0.03 | 88 | 1013.3 |
| 20260506190056 | 56 | 313 | 1.0 | 4.0 | 0.00 | 0.03 | 0.03 | 87 | 1013.4 |
| 20260506185552 | 56 | 0 | 0.0 | 6.0 | 0.00 | 0.03 | 0.03 | 88 | 1013.4 |
| 20260506185049 | 56 | 285 | 3.0 | 6.0 | 0.00 | 0.03 | 0.03 | 87 | 1013.4 |
| 20260506184601 | 56 | 299 | 2.0 | 4.0 | 0.00 | 0.03 | 0.03 | 87 | 1013.3 |
| 20260506184052 | 57 | 150 | 1.0 | 3.0 | 0.00 | 0.03 | 0.03 | 87 | 1013.3 |
| 20260506183549 | 57 | 244 | 0.0 | 3.0 | 0.00 | 0.03 | 0.03 | 87 | 1013.1 |
| 20260506183101 | 57 | 154 | 0.0 | 3.0 | 0.00 | 0.03 | 0.03 | 86 | 1013.0 |
| 20260506182548 | 57 | 81 | 0.0 | 3.0 | 0.00 | 0.03 | 0.03 | 86 | 1013.0 |
| 20260506182048 | 57 | 22 | 1.0 | 3.0 | 0.00 | 0.03 | 0.03 | 85 | 1013.1 |
| 20260506181600 | 57 | 38 | 2.0 | 4.0 | 0.00 | 0.03 | 0.03 | 85 | 1013.0 |
| 20260506181049 | 57 | 48 | 1.0 | 4.0 | 0.00 | 0.03 | 0.03 | 84 | 1013.1 |
| 20260506180552 | 57 | 0 | 0.0 | 5.0 | 0.00 | 0.03 | 0.03 | 84 | 1012.8 |
| 20260506180054 | 57 | 308 | 2.0 | 6.0 | 0.00 | 0.03 | 0.03 | 83 | 1013.0 |
| 20260506175548 | 57 | 314 | 3.0 | 8.0 | 0.00 | 0.03 | 0.03 | 83 | 1012.8 |
| 20260506175052 | 57 | 287 | 3.0 | 8.0 | 0.00 | 0.03 | 0.03 | 83 | 1012.8 |
| 20260506174605 | 57 | 293 | 4.0 | 8.0 | 0.00 | 0.03 | 0.03 | 83 | 1012.9 |
| 20260506174052 | 57 | 323 | 3.0 | 6.0 | 0.00 | 0.03 | 0.03 | 84 | 1013.0 |
| 20260506173549 | 57 | 309 | 2.0 | 9.0 | 0.00 | 0.03 | 0.03 | 83 | 1012.9 |
| 20260506173057 | 57 | 142 | 3.0 | 9.0 | 0.00 | 0.03 | 0.03 | 83 | 1012.9 |
| 20260506172551 | 57 | 304 | 4.0 | 9.0 | 0.01 | 0.03 | 0.03 | 82 | 1013.0 |
| 20260506172048 | 57 | 292 | 2.0 | 11.0 | 0.02 | 0.03 | 0.03 | 83 | 1012.9 |
| 20260506171611 | 57 | 327 | 2.0 | 11.0 | 0.03 | 0.03 | 0.03 | 86 | 1012.9 |
| 20260506171052 | 57 | 339 | 5.0 | 11.0 | 0.03 | 0.03 | 0.03 | 85 | 1013.1 |
| 20260506170553 | 57 | 288 | 5.0 | 15.0 | 0.03 | 0.03 | 0.03 | 85 | 1012.7 |
| 20260506170104 | 57 | 301 | 7.0 | 15.0 | 0.03 | 0.03 | 0.03 | 85 | 1012.9 |
| 20260506170037 | 57 | 289 | 8.0 | 15.0 | 0.03 | 0.03 | 0.03 | 86 | 1012.9 |
| 20260506165049 | 57 | 297 | 5.0 | 11.0 | 0.03 | 0.03 | 0.03 | 86 | 1012.9 |
| 20260506164559 | 57 | 62 | 4.0 | 11.0 | 0.03 | 0.03 | 0.03 | 86 | 1012.8 |
| 20260506164048 | 56 | 306 | 5.0 | 13.0 | 0.03 | 0.03 | 0.03 | 86 | 1012.8 |
| 20260506163548 | 56 | 313 | 7.0 | 13.0 | 0.02 | 0.02 | 0.02 | 86 | 1012.7 |
| 20260506163131 | 57 | 197 | 5.0 | 13.0 | 0.02 | 0.02 | 0.02 | 85 | 1013.0 |
| 20260506162548 | 57 | 285 | 6.0 | 14.0 | 0.01 | 0.01 | 0.01 | 84 | 1012.7 |
| 20260506162053 | 58 | 288 | 9.0 | 16.0 | 0.00 | 0.00 | 0.00 | 81 | 1012.7 |
| 20260506161552 | 58 | 306 | 9.0 | 16.0 | 0.00 | 0.00 | 0.00 | 80 | 1012.5 |
| 20260506161048 | 59 | 314 | 7.0 | 16.0 | 0.00 | 0.00 | 0.00 | 78 | 1012.6 |
| 20260506160548 | 60 | 302 | 7.0 | 14.0 | 0.00 | 0.00 | 0.00 | 76 | 1012.5 |
| 20260506160051 | 61 | 294 | 8.0 | 13.0 | 0.00 | 0.00 | 0.00 | 73 | 1012.4 |
| 20260506155849 | 61 | 296 | 8.0 | 13.0 | 0.00 | 0.00 | 0.00 | 70 | 1012.4 |
| 20260506155049 | 62 | 30 | 5.0 | 11.0 | 0.00 | 0.00 | 0.00 | 66 | 1012.4 |
| 20260506154558 | 63 | 200 | 3.0 | 10.0 | 0.00 | 0.00 | 0.00 | 64 | 1012.3 |
| 20260506154053 | 64 | 285 | 4.0 | 13.0 | 0.00 | 0.00 | 0.00 | 63 | 1012.5 |
| 20260506153549 | 64 | 15 | 8.0 | 13.0 | 0.00 | 0.00 | 0.00 | 60 | 1012.4 |
| 20260506153121 | 65 | 11 | 6.0 | 12.0 | 0.00 | 0.00 | 0.00 | 59 | 1012.3 |
| 20260506152555 | 66 | 321 | 7.0 | 12.0 | 0.00 | 0.00 | 0.00 | 57 | 1012.2 |
| 20260506152049 | 67 | 349 | 7.0 | 12.0 | 0.00 | 0.00 | 0.00 | 56 | 1012.2 |
| 20260506151555 | 69 | 8 | 3.0 | 11.0 | 0.00 | 0.00 | 0.00 | 55 | 1012.2 |
| 20260506151048 | 68 | 114 | 4.0 | 11.0 | 0.00 | 0.00 | 0.00 | 55 | 1012.2 |
| 20260506150548 | 68 | 98 | 3.0 | 8.0 | 0.00 | 0.00 | 0.00 | 54 | 1012.2 |
| 20260506150055 | 68 | 74 | 3.0 | 8.0 | 0.00 | 0.00 | 0.00 | 53 | 1012.2 |
| 20260506145551 | 68 | 56 | 2.0 | 7.0 | 0.00 | 0.00 | 0.00 | 56 | 1012.2 |
| 20260506145050 | 68 | 47 | 3.0 | 7.0 | 0.00 | 0.00 | 0.00 | 55 | 1012.1 |
| 20260506144555 | 67 | 60 | 1.0 | 9.0 | 0.00 | 0.00 | 0.00 | 57 | 1012.0 |
| 20260506144049 | 67 | 93 | 3.0 | 9.0 | 0.00 | 0.00 | 0.00 | 56 | 1012.3 |
| 20260506143550 | 67 | 131 | 3.0 | 10.0 | 0.00 | 0.00 | 0.00 | 58 | 1012.6 |
| 20260506143053 | 67 | 20 | 5.0 | 10.0 | 0.00 | 0.00 | 0.00 | 59 | 1012.4 |
| 20260506142549 | 66 | 57 | 6.0 | 10.0 | 0.00 | 0.00 | 0.00 | 61 | 1012.4 |
| 20260506142048 | 66 | 88 | 4.0 | 9.0 | 0.00 | 0.00 | 0.00 | 62 | 1012.6 |
| 20260506141554 | 66 | 17 | 4.0 | 9.0 | 0.00 | 0.00 | 0.00 | 61 | 1012.8 |
| 20260506141049 | 66 | 350 | 2.0 | 7.0 | 0.00 | 0.00 | 0.00 | 59 | 1012.9 |
| 20260506140551 | 67 | 19 | 2.0 | 5.0 | 0.00 | 0.00 | 0.00 | 57 | 1012.9 |
| 20260506140053 | 67 | 30 | 1.0 | 10.0 | 0.00 | 0.00 | 0.00 | 56 | 1012.6 |
| 20260506135548 | 67 | 41 | 3.0 | 10.0 | 0.00 | 0.00 | 0.00 | 53 | 1012.7 |
| 20260506135048 | 68 | 9 | 3.0 | 10.0 | 0.00 | 0.00 | 0.00 | 54 | 1012.6 |
| 20260506134600 | 67 | 336 | 1.0 | 7.0 | 0.00 | 0.00 | 0.00 | 53 | 1012.8 |
| 20260506134048 | 66 | 11 | 1.0 | 7.0 | 0.00 | 0.00 | 0.00 | 53 | 1012.7 |
| 20260506133547 | 66 | 34 | 3.0 | 7.0 | 0.00 | 0.00 | 0.00 | 55 | 1012.9 |
| 20260506133056 | 66 | 64 | 4.0 | 7.0 | 0.00 | 0.00 | 0.00 | 55 | 1013.0 |
| 20260506132550 | 66 | 36 | 4.0 | 7.0 | 0.00 | 0.00 | 0.00 | 56 | 1013.1 |
| 20260506132049 | 66 | 19 | 3.0 | 7.0 | 0.00 | 0.00 | 0.00 | 55 | 1013.1 |
| 20260506131601 | 66 | 351 | 2.0 | 7.0 | 0.00 | 0.00 | 0.00 | 53 | 1013.1 |
| 20260506131049 | 66 | 48 | 3.0 | 7.0 | 0.00 | 0.00 | 0.00 | 53 | 1013.2 |
| 20260506130550 | 66 | 81 | 3.0 | 6.0 | 0.00 | 0.00 | 0.00 | 54 | 1013.1 |
| 20260506130548 | 67 | 29 | 3.0 | 5.0 | 0.00 | 0.00 | 0.00 | 53 | 1013.0 |
| 20260506125151 | 68 | 29 | 2.0 | 5.0 | 0.00 | 0.00 | 0.00 | 52 | 1013.3 |
| 20260506122549 | 68 | 121 | 0.0 | 4.0 | 0.00 | 0.00 | 0.00 | 50 | 1013.4 |
| 20260506122049 | 68 | 201 | 1.0 | 3.0 | 0.00 | 0.00 | 0.00 | 48 | 1013.4 |
| 20260506121608 | 68 | 156 | 0.0 | 5.0 | 0.00 | 0.00 | 0.00 | 48 | 1013.4 |
| 20260506121048 | 67 | 53 | 0.0 | 5.0 | 0.00 | 0.00 | 0.00 | 47 | 1013.6 |
| 20260506120550 | 67 | 84 | 1.0 | 5.0 | 0.00 | 0.00 | 0.00 | 49 | 1013.6 |
| 20260506120059 | 66 | 112 | 1.0 | 4.0 | 0.00 | 0.00 | 0.00 | 53 | 1013.7 |
| 20260506115549 | 65 | 35 | 0.0 | 5.0 | 0.00 | 0.00 | 0.00 | 55 | 1013.8 |
| 20260506115049 | 65 | 260 | 0.0 | 5.0 | 0.00 | 0.00 | 0.00 | 54 | 1013.8 |
| 20260506114557 | 66 | 329 | 2.0 | 6.0 | 0.00 | 0.00 | 0.00 | 55 | 1014.0 |